Home   Weather   Bottrop   Past weeks

Flag for Germany Past Weather in Bottrop, North Rhine-Westphalia, Germany — Yesterday and Last 2 Weeks

Now
54 °F

Clear.


Feels Like: 54 °F
Forecast: 58 / 82 °F
Wind: 2 mph from North

Location: Duesseldorf

Current Time: May 26, 2017 at 3:47:33 am

Latest Report: May 26, 2017 at 3:20 am


Visibility: 10 mi

Pressure: 30.18 "Hg

Humidity: 94%

Dew Point: 52 °F

Location of BottropLocation

Past Weather in Bottrop — Graph

°F

Bottrop Temperature Yesterday

Maximum temperature yesterday: 75 °F (at 4:20 pm)
Minimum temperature yesterday: 50 °F (at 4:20 am)
Average temperature yesterday: 62 °F

High & Low Weather Summary for the Past Weeks

 TemperatureHumidityPressure
High84 °F (May 17, 4:20 pm)100% (May 14, 3:20 am)30.42 "Hg (May 14, 3:20 am)
Low41 °F (May 11, 4:20 am)23% (May 15, 7:20 pm)29.39 "Hg (May 11, 6:50 pm)
Average63 °F64%30.04 "Hg
* Reported May 11 2:20 am — May 26 2:50 am, Bottrop. Weather by CustomWeather, © 2017

Note: Actual official high and low records may vary slightly from our data, if they occured in-between our weather recording intervals... More about our weather records

Advertising

Bottrop Weather History for the Previous 24 Hours

Scroll right to see more
 ConditionsComfort  
Time TempWeatherWind HumidityBarometerVisibility
2:50 am
Fri, May 26
54 °FClear.2 mph100%30.18 "Hg10 mi
2:20 am55 °FClear.2 mph88%30.18 "Hg10 mi
1:50 am55 °FClear.1 mph88%30.21 "Hg10 mi
1:20 am55 °FClear.3 mph94%30.21 "Hg10 mi
12:50 am57 °FClear.6 mph88%30.18 "Hg10 mi
12:20 am57 °FClear.5 mph88%30.21 "Hg10 mi
11:50 pm
Thu, May 25
57 °FClear.3 mph88%30.21 "Hg10 mi
11:20 pm59 °FClear.2 mph82%30.18 "Hg10 mi
10:50 pm61 °FClear.2 mph77%30.18 "Hg10 mi
10:20 pm63 °FClear.3 mph73%30.18 "Hg10 mi
9:50 pm64 °FClear.3 mph68%30.18 "Hg10 mi
9:20 pm68 °FSunny.5 mph56%30.18 "Hg10 mi
8:50 pm70 °FSunny.6 mph53%30.18 "Hg10 mi
8:20 pm70 °FSunny.9 mph53%30.18 "Hg10 mi
7:50 pm70 °FSunny.8 mph53%30.18 "Hg10 mi
7:20 pm72 °FSunny.10 mph53%30.18 "Hg10 mi
6:50 pm72 °FSunny.7 mph50%30.18 "Hg10 mi
6:20 pm75 °FSunny.12 mph44%30.21 "Hg10 mi
5:50 pm75 °FSunny.9 mph44%30.21 "Hg10 mi
5:20 pm75 °FPassing clouds.12 mph44%30.21 "HgN/A
4:50 pm75 °FPassing clouds.9 mph41%30.21 "HgN/A
4:20 pm75 °FPassing clouds.8 mph41%30.21 "HgN/A
3:50 pm73 °FPassing clouds.7 mph44%30.21 "HgN/A
3:20 pm72 °FSunny.8 mph47%30.24 "Hg10 mi
2:50 pm72 °FSunny.7 mph50%30.24 "Hg10 mi
2:20 pm70 °FSunny.6 mph50%30.24 "Hg10 mi
1:50 pm70 °FScattered clouds.3 mph50%30.24 "HgN/A
1:20 pm70 °FScattered clouds.6 mph53%30.24 "HgN/A
12:50 pm66 °FScattered clouds.8 mph56%30.27 "HgN/A
12:20 pm66 °FScattered clouds.8 mph56%30.27 "HgN/A
11:50 am64 °FPartly sunny.7 mph60%30.27 "HgN/A
11:20 am63 °FPartly sunny.6 mph64%30.27 "HgN/A
10:50 am61 °FPartly sunny.6 mph68%30.27 "HgN/A
10:20 am59 °FPartly sunny.3 mph72%30.27 "HgN/A
9:50 am57 °FBroken clouds.6 mph77%30.27 "HgN/A
9:20 am57 °FPartly sunny.5 mph77%30.27 "HgN/A
8:50 am55 °FPartly sunny.6 mph82%30.27 "HgN/A
8:20 am55 °FPartly sunny.5 mph82%30.27 "Hg5 mi
7:50 am54 °FFog.3 mph94%30.27 "Hg3 mi
7:20 am52 °FFog.5 mph100%30.24 "Hg1 mi
6:50 am52 °FCool.6 mph94%30.24 "Hg3 mi
6:20 am52 °FFog.2 mph94%30.24 "Hg4 mi
5:50 am52 °FFog.2 mph94%30.24 "Hg5 mi
5:20 am50 °FFog.2 mph94%30.24 "Hg6 mi
4:50 am50 °FFog.1 mph94%30.24 "HgN/A
4:20 am50 °FFog.3 mph100%30.24 "HgN/A
3:50 am52 °FFog.5 mph94%30.24 "HgN/A
3:20 am52 °FFog.5 mph94%30.24 "HgN/A
Weather by CustomWeather, © 2017

See weather overviewHow to use our weather pages